COSMOS 1275 DEB

Satellite information

Favourite Embed

Satellite Type and Status

DEBRISIN ORBIT

Key statistics

Satellite COSMOS 1275 DEB at a glance.

Uptime

16042

Days in orbit

Revolutions

≈ 13.9

Per day

Orbit

LEO

Low Earth Orbit

Inclination

82.9

Latest

Satellite identification and parameters

Extended collection of information and parameters for COSMOS 1275 DEB.

Object identification

Identified? True

Debris? True

Object name: COSMOS 1275 DEB

International designator: 1981-053MX

Object number (NORAD): 39937

Object ID (CCSDS): 39937

Country: COMMONWEALTH OF INDEPENDENT STATES (CIS)

Current information (Y/N): Y

RCS size: SMALL

Orbital parameters

Period: 103.797 minutes

Inclination: 82.8849 deg

SMA: 7316.157 km

Apoapsis: 985.596 km

Periapsis: 890.448 km

RAAN: 71.78 deg

Eccentricy: 0.0065026

Argument of periapsis: 192.833 deg

Mean anomaly: 167.1181 deg

Mean motion: 13.87324991 rev/day

Mean motion (dot): 0.00001418 rev/day2

B* drag term: 0.0011726 1/REarth

Two-line elements (TLE)

Creation date: May 4, 2025, 10:36 p.m.

Reference frame: TEME

Reference center: EARTH

Epoch: May 4, 2025, 1:31 p.m. UTC

TLE line 0: 0 COSMOS 1275 DEB

TLE line 1: 1 39937U 81053MX 25124.56343748 .00001418 00000-0 11726-2 0 9995

TLE line 2: 2 39937 82.8849 71.7800 0065026 192.8330 167.1181 13.87324991577999

Live tracking on map

Real-time ground track for satellite COSMOS 1275 DEB.

In-orbit conjunctions

A list of the most updated potential collisions computed for object COSMOS 1275 DEB.

Target Orbit TCA Probability of collision Miss distance Type
METEOR 2-17 LEO 2025-03-21 15:39:28 0.0001300313 541.0 (m) PAYLOAD

Associated space launch

Navigation satellite providing location information for the Tsiklon-B navigation system

COSMOS 1275 DEB was lifted into orbit during the mission ‘Kosmos-3M | Parus 27’, on board a Kosmos-3M space rocket.

The launch took place on June 4, 1981, 3:41 p.m. from 132/2.

For more information about the launch, click the button.

Launch to space Kosmos-3M | Parus 27
Kosmos-3M | Parus 27

Agency: N/A

Status: Launch Successful

Launch date: June 4, 1981, 3:41 p.m. UTC

Rocket: Kosmos-3M

Launch pad: 132/2

Location: Plesetsk Cosmodrome, Russian Federation

...

Latest news about this satellite

There are no fresh news available about this satellite. Check back as we update our databases every day.


Newsletter sign-up

Weekly statistics, charts and insights to help you stay on top of the space industry.